| time (UTC) | temp C | wind direction | speed KPH | gust KPH | rain 1hr cm | rain 24hr cm | rain mn cm | humidity % | barometer mb |
| 20260510190703 | 25 | 268 | 11.3 | 20.9 | 0.00 | 0.00 | 0.00 | 53 | 1015.2 |
| 20260510190203 | 25 | 308 | 9.7 | 20.9 | 0.00 | 0.00 | 0.00 | 52 | 1015.1 |
| 20260510184704 | 25 | 327 | 11.3 | 24.1 | 0.00 | 0.00 | 0.00 | 53 | 1015.1 |
| 20260510184203 | 25 | 291 | 11.3 | 24.1 | 0.00 | 0.00 | 0.00 | 54 | 1015.1 |
| 20260510183703 | 26 | 301 | 11.3 | 29.0 | 0.00 | 0.00 | 0.00 | 52 | 1015.1 |
| 20260510183203 | 25 | 298 | 16.1 | 29.0 | 0.00 | 0.00 | 0.00 | 51 | 1015.1 |
| 20260510181703 | 26 | 275 | 9.7 | 20.9 | 0.00 | 0.00 | 0.00 | 51 | 1014.9 |
| 20260510180703 | 25 | 317 | 12.9 | 19.3 | 0.00 | 0.00 | 0.00 | 53 | 1015.0 |
| 20260510180203 | 25 | 281 | 11.3 | 19.3 | 0.00 | 0.00 | 0.00 | 51 | 1015.0 |
| 20260510174703 | 25 | 293 | 9.7 | 19.3 | 0.00 | 0.00 | 0.00 | 55 | 1015.0 |
| 20260510174203 | 25 | 301 | 9.7 | 19.3 | 0.00 | 0.00 | 0.00 | 54 | 1015.0 |
| 20260510173703 | 24 | 273 | 8.0 | 19.3 | 0.00 | 0.00 | 0.00 | 54 | 1015.0 |
| 20260510173203 | 24 | 297 | 9.7 | 19.3 | 0.00 | 0.00 | 0.00 | 56 | 1015.0 |
| 20260510171703 | 23 | 295 | 11.3 | 16.1 | 0.00 | 0.00 | 0.00 | 58 | 1015.1 |
| 20260510171204 | 23 | 310 | 8.0 | 19.3 | 0.00 | 0.00 | 0.00 | 59 | 1015.1 |
| 20260510170703 | 22 | 321 | 8.0 | 19.3 | 0.00 | 0.00 | 0.00 | 60 | 1015.1 |
| 20260510170204 | 23 | 311 | 11.3 | 19.3 | 0.00 | 0.00 | 0.00 | 58 | 1015.3 |
| 20260510164703 | 24 | 285 | 4.8 | 14.5 | 0.00 | 0.00 | 0.00 | 55 | 1015.1 |
| 20260510164203 | 24 | 312 | 9.7 | 14.5 | 0.00 | 0.00 | 0.00 | 54 | 1015.0 |
| 20260510163704 | 24 | 307 | 9.7 | 14.5 | 0.00 | 0.00 | 0.00 | 55 | 1015.0 |
| 20260510163203 | 24 | 302 | 9.7 | 14.5 | 0.00 | 0.00 | 0.00 | 54 | 1015.0 |
| 20260510161704 | 24 | 278 | 6.4 | 16.1 | 0.00 | 0.00 | 0.00 | 56 | 1015.1 |
| 20260510161203 | 24 | 307 | 11.3 | 16.1 | 0.00 | 0.00 | 0.00 | 54 | 1015.1 |
| 20260510160703 | 23 | 283 | 9.7 | 14.5 | 0.00 | 0.00 | 0.00 | 55 | 1015.1 |
| 20260510160203 | 23 | 272 | 4.8 | 14.5 | 0.00 | 0.00 | 0.00 | 56 | 1015.1 |
| 20260510154703 | 23 | 237 | 6.4 | 16.1 | 0.00 | 0.00 | 0.00 | 54 | 1015.1 |
| 20260510154203 | 24 | 247 | 8.0 | 16.1 | 0.00 | 0.00 | 0.00 | 53 | 1015.1 |
| 20260510151203 | 25 | 189 | 11.3 | 20.9 | 0.00 | 0.00 | 0.00 | 51 | 1014.6 |
| 20260510150705 | 25 | 193 | 9.7 | 20.9 | 0.00 | 0.00 | 0.00 | 51 | 1014.7 |
| 20260510150204 | 25 | 205 | 11.3 | 20.9 | 0.00 | 0.00 | 0.00 | 52 | 1014.8 |
| 20260510144703 | 24 | 195 | 9.7 | 19.3 | 0.00 | 0.00 | 0.00 | 53 | 1015.0 |
| 20260510144203 | 24 | 230 | 11.3 | 19.3 | 0.00 | 0.00 | 0.00 | 53 | 1014.8 |
| 20260510143704 | 23 | 218 | 6.4 | 19.3 | 0.00 | 0.00 | 0.00 | 55 | 1014.7 |
| 20260510141703 | 22 | 192 | 8.0 | 12.9 | 0.00 | 0.00 | 0.00 | 59 | 1015.0 |
| 20260510141203 | 22 | 201 | 3.2 | 9.7 | 0.00 | 0.00 | 0.00 | 61 | 1015.0 |
| 20260510140703 | 22 | 259 | 4.8 | 8.0 | 0.00 | 0.00 | 0.00 | 62 | 1015.1 |
| 20260510140204 | 22 | 251 | 1.6 | 8.0 | 0.00 | 0.00 | 0.00 | 63 | 1015.1 |
| 20260510134704 | 22 | 190 | 6.4 | 11.3 | 0.00 | 0.00 | 0.00 | 61 | 1015.1 |
| 20260510134203 | 22 | 183 | 4.8 | 9.7 | 0.00 | 0.00 | 0.00 | 63 | 1015.1 |
| 20260510133703 | 21 | 188 | 4.8 | 14.5 | 0.00 | 0.00 | 0.00 | 64 | 1015.0 |
| 20260510133203 | 21 | 188 | 8.0 | 14.5 | 0.00 | 0.00 | 0.00 | 65 | 1015.0 |
| 20260510131703 | 20 | 192 | 4.8 | 9.7 | 0.00 | 0.00 | 0.00 | 67 | 1015.0 |
| 20260510131204 | 20 | 217 | 1.6 | 8.0 | 0.00 | 0.00 | 0.00 | 68 | 1014.9 |
| 20260510130703 | 20 | 197 | 4.8 | 9.7 | 0.00 | 0.00 | 0.00 | 69 | 1014.8 |
| 20260510124703 | 19 | 329 | 0.0 | 0.0 | 0.00 | 0.00 | 0.00 | 74 | 1014.9 |
| 20260510123204 | 18 | 328 | 1.6 | 3.2 | 0.00 | 0.00 | 0.00 | 79 | 1014.8 |
| 20260510121703 | 16 | 23 | 0.0 | 0.0 | 0.00 | 0.00 | 0.00 | 84 | 1014.8 |
| 20260510121204 | 16 | 23 | 0.0 | 0.0 | 0.00 | 0.00 | 0.00 | 86 | 1014.7 |
| 20260510120704 | 15 | 23 | 0.0 | 0.0 | 0.00 | 0.00 | 0.00 | 87 | 1014.7 |
| 20260510120203 | 15 | 23 | 0.0 | 0.0 | 0.00 | 0.00 | 0.00 | 89 | 1014.7 |
| 20260510114703 | 13 | 23 | 0.0 | 0.0 | 0.00 | 0.00 | 0.00 | 93 | 1014.4 |
| 20260510114204 | 13 | 23 | 0.0 | 0.0 | 0.00 | 0.00 | 0.00 | 94 | 1014.5 |
| 20260510113703 | 12 | 23 | 0.0 | 0.0 | 0.00 | 0.00 | 0.00 | 95 | 1014.4 |
| 20260510113203 | 12 | 23 | 0.0 | 0.0 | 0.00 | 0.00 | 0.00 | 96 | 1014.4 |
| 20260510111204 | 10 | 23 | 0.0 | 0.0 | 0.00 | 0.00 | 0.00 | 97 | 1013.9 |
| 20260510110703 | 10 | 23 | 0.0 | 0.0 | 0.00 | 0.00 | 0.00 | 97 | 1013.9 |
| 20260510110203 | 10 | 23 | 0.0 | 0.0 | 0.00 | 0.00 | 0.00 | 97 | 1013.8 |
| 20260510104703 | 10 | 23 | 0.0 | 0.0 | 0.00 | 0.00 | 0.00 | 97 | 1013.7 |
| 20260510103703 | 10 | 23 | 0.0 | 0.0 | 0.00 | 0.00 | 0.00 | 97 | 1013.6 |
| 20260510101704 | 10 | 23 | 0.0 | 0.0 | 0.00 | 0.00 | 0.00 | 97 | 1013.4 |
| 20260510101203 | 10 | 23 | 0.0 | 0.0 | 0.00 | 0.00 | 0.00 | 97 | 1013.6 |
| 20260510100703 | 10 | 23 | 0.0 | 0.0 | 0.00 | 0.00 | 0.00 | 97 | 1013.5 |
| 20260510100203 | 10 | 23 | 0.0 | 0.0 | 0.00 | 0.00 | 0.00 | 97 | 1013.4 |
| 20260510094704 | 10 | 23 | 0.0 | 0.0 | 0.00 | 0.00 | 0.00 | 97 | 1013.0 |
| 20260510094204 | 10 | 23 | 0.0 | 0.0 | 0.00 | 0.00 | 0.00 | 97 | 1013.0 |
| 20260510093704 | 10 | 23 | 0.0 | 0.0 | 0.00 | 0.00 | 0.00 | 97 | 1013.0 |
| 20260510091704 | 10 | 23 | 0.0 | 0.0 | 0.00 | 0.00 | 0.00 | 96 | 1012.8 |
| 20260510091203 | 10 | 23 | 0.0 | 0.0 | 0.00 | 0.00 | 0.00 | 97 | 1012.8 |
| 20260510090704 | 10 | 23 | 0.0 | 0.0 | 0.00 | 0.00 | 0.00 | 97 | 1012.8 |
| 20260510090204 | 10 | 23 | 0.0 | 0.0 | 0.00 | 0.00 | 0.00 | 97 | 1012.8 |
| 20260510084704 | 10 | 23 | 0.0 | 0.0 | 0.00 | 0.00 | 0.00 | 96 | 1012.6 |
| 20260510084203 | 10 | 23 | 0.0 | 0.0 | 0.00 | 0.00 | 0.00 | 96 | 1012.6 |
| 20260510083704 | 10 | 23 | 0.0 | 0.0 | 0.00 | 0.00 | 0.00 | 96 | 1012.5 |
| 20260510083204 | 10 | 23 | 0.0 | 0.0 | 0.00 | 0.00 | 0.00 | 96 | 1012.5 |
| 20260510081703 | 10 | 23 | 0.0 | 0.0 | 0.00 | 0.00 | 0.00 | 96 | 1012.4 |
| 20260510081203 | 10 | 23 | 0.0 | 0.0 | 0.00 | 0.00 | 0.00 | 96 | 1012.4 |
| 20260510080703 | 10 | 23 | 0.0 | 0.0 | 0.00 | 0.00 | 0.00 | 96 | 1012.3 |
| 20260510080203 | 10 | 23 | 0.0 | 0.0 | 0.00 | 0.00 | 0.00 | 96 | 1012.3 |
| 20260510074703 | 11 | 23 | 0.0 | 0.0 | 0.00 | 0.00 | 0.00 | 96 | 1012.2 |
| 20260510074204 | 11 | 23 | 0.0 | 0.0 | 0.00 | 0.00 | 0.00 | 96 | 1012.2 |
| 20260510073703 | 11 | 23 | 0.0 | 0.0 | 0.00 | 0.00 | 0.00 | 96 | 1012.1 |
| 20260510073203 | 11 | 23 | 0.0 | 1.6 | 0.00 | 0.00 | 0.00 | 96 | 1012.2 |
| 20260510071704 | 11 | 30 | 0.0 | 0.0 | 0.00 | 0.00 | 0.00 | 96 | 1012.1 |
| 20260510071203 | 11 | 30 | 0.0 | 0.0 | 0.00 | 0.00 | 0.00 | 96 | 1012.2 |
| 20260510070703 | 11 | 30 | 0.0 | 0.0 | 0.00 | 0.00 | 0.00 | 96 | 1012.1 |
| 20260510070204 | 11 | 30 | 0.0 | 3.2 | 0.00 | 0.00 | 0.00 | 96 | 1012.2 |
| 20260510064704 | 11 | 58 | 0.0 | 0.0 | 0.00 | 0.00 | 0.00 | 96 | 1012.1 |
| 20260510064204 | 11 | 58 | 0.0 | 0.0 | 0.00 | 0.00 | 0.00 | 96 | 1012.2 |
| 20260510063704 | 11 | 58 | 0.0 | 0.0 | 0.00 | 0.00 | 0.00 | 95 | 1012.3 |
| 20260510063204 | 11 | 58 | 0.0 | 0.0 | 0.00 | 0.00 | 0.00 | 95 | 1012.3 |
| 20260510061704 | 11 | 58 | 0.0 | 0.0 | 0.00 | 0.00 | 0.00 | 95 | 1012.3 |
| 20260510061204 | 11 | 58 | 0.0 | 0.0 | 0.00 | 0.00 | 0.00 | 96 | 1012.3 |
| 20260510060703 | 11 | 58 | 0.0 | 0.0 | 0.00 | 0.00 | 0.00 | 96 | 1012.3 |
| 20260510054703 | 11 | 75 | 3.2 | 3.2 | 0.00 | 0.00 | 0.00 | 95 | 1012.3 |
| 20260510053704 | 11 | 136 | 0.0 | 0.0 | 0.00 | 0.00 | 0.00 | 95 | 1012.4 |
| 20260510053203 | 11 | 136 | 0.0 | 0.0 | 0.00 | 0.00 | 0.00 | 95 | 1012.3 |
| 20260510051704 | 11 | 136 | 0.0 | 0.0 | 0.00 | 0.00 | 0.00 | 95 | 1012.4 |
| 20260510051203 | 11 | 136 | 0.0 | 0.0 | 0.00 | 0.00 | 0.00 | 95 | 1012.4 |
| 20260510050204 | 11 | 136 | 0.0 | 0.0 | 0.00 | 0.00 | 0.00 | 94 | 1012.5 |
| 20260510044703 | 12 | 136 | 0.0 | 0.0 | 0.00 | 0.00 | 0.00 | 94 | 1012.7 |
| 20260510044204 | 12 | 136 | 0.0 | 0.0 | 0.00 | 0.00 | 0.00 | 94 | 1012.7 |
| 20260510043704 | 12 | 136 | 0.0 | 0.0 | 0.00 | 0.00 | 0.00 | 94 | 1012.7 |
| 20260510043204 | 12 | 136 | 0.0 | 0.0 | 0.00 | 0.00 | 0.00 | 93 | 1012.6 |
| 20260510041703 | 12 | 136 | 0.0 | 0.0 | 0.00 | 0.00 | 0.00 | 92 | 1012.7 |
| 20260510040704 | 12 | 136 | 0.0 | 0.0 | 0.00 | 0.00 | 0.00 | 92 | 1012.7 |
| 20260510040204 | 12 | 136 | 0.0 | 0.0 | 0.00 | 0.00 | 0.00 | 92 | 1012.6 |
| 20260510034703 | 12 | 136 | 0.0 | 0.0 | 0.00 | 0.00 | 0.00 | 90 | 1012.6 |
| 20260510033704 | 13 | 136 | 0.0 | 0.0 | 0.00 | 0.00 | 0.00 | 92 | 1012.6 |
| 20260510033204 | 13 | 136 | 0.0 | 0.0 | 0.00 | 0.00 | 0.00 | 91 | 1012.5 |
| 20260510031704 | 13 | 136 | 0.0 | 0.0 | 0.00 | 0.00 | 0.00 | 90 | 1012.4 |
| 20260510031203 | 13 | 136 | 0.0 | 0.0 | 0.00 | 0.00 | 0.00 | 89 | 1012.4 |
| 20260510030702 | 13 | 136 | 0.0 | 0.0 | 0.00 | 0.00 | 0.00 | 88 | 1012.4 |
| 20260510030203 | 13 | 136 | 0.0 | 0.0 | 0.00 | 0.00 | 0.00 | 88 | 1012.3 |
| 20260510024702 | 13 | 112 | 0.0 | 0.0 | 0.00 | 0.00 | 0.00 | 88 | 1012.2 |
| 20260510024203 | 13 | 112 | 0.0 | 0.0 | 0.00 | 0.00 | 0.00 | 86 | 1012.2 |
| 20260510023702 | 14 | 112 | 0.0 | 0.0 | 0.00 | 0.00 | 0.00 | 85 | 1012.1 |
| 20260510023202 | 14 | 112 | 0.0 | 0.0 | 0.00 | 0.00 | 0.00 | 86 | 1012.0 |
| 20260510021702 | 15 | 112 | 0.0 | 0.0 | 0.00 | 0.00 | 0.00 | 84 | 1011.8 |
| 20260510020702 | 15 | 112 | 0.0 | 0.0 | 0.00 | 0.00 | 0.00 | 82 | 1011.6 |
| 20260510020202 | 15 | 112 | 0.0 | 0.0 | 0.00 | 0.00 | 0.00 | 82 | 1011.5 |
| 20260510014202 | 16 | 117 | 3.2 | 4.8 | 0.00 | 0.00 | 0.00 | 79 | 1011.1 |
| 20260510013702 | 16 | 96 | 0.0 | 0.0 | 0.00 | 0.00 | 0.00 | 79 | 1011.0 |
| 20260510013202 | 16 | 96 | 0.0 | 0.0 | 0.00 | 0.00 | 0.00 | 77 | 1011.0 |
| 20260510011703 | 17 | 96 | 0.0 | 3.2 | 0.00 | 0.00 | 0.00 | 74 | 1010.8 |
| 20260510011202 | 17 | 96 | 0.0 | 4.8 | 0.00 | 0.00 | 0.00 | 73 | 1010.8 |
| 20260510010702 | 17 | 112 | 3.2 | 4.8 | 0.00 | 0.00 | 0.00 | 72 | 1010.7 |
| 20260510010202 | 17 | 216 | 0.0 | 0.0 | 0.00 | 0.00 | 0.00 | 71 | 1010.6 |
| 20260510004702 | 19 | 216 | 0.0 | 0.0 | 0.00 | 0.00 | 0.00 | 66 | 1010.5 |
| 20260510004202 | 19 | 216 | 0.0 | 0.0 | 0.00 | 0.00 | 0.00 | 65 | 1010.4 |
| 20260510003702 | 20 | 216 | 0.0 | 0.0 | 0.00 | 0.00 | 0.00 | 63 | 1010.4 |
| 20260510001702 | 22 | 202 | 0.0 | 11.3 | 0.00 | 0.00 | 0.00 | 57 | 1010.0 |
| 20260510001202 | 22 | 215 | 8.0 | 11.3 | 0.00 | 0.00 | 0.00 | 56 | 1010.0 |
| 20260510000702 | 22 | 203 | 3.2 | 9.7 | 0.00 | 0.00 | 0.00 | 54 | 1010.0 |
| 20260509234703 | 23 | 208 | 9.7 | 24.1 | 0.00 | 0.00 | 0.00 | 52 | 1009.9 |
| 20260509234203 | 23 | 232 | 8.0 | 24.1 | 0.00 | 0.00 | 0.00 | 52 | 1009.8 |
| 20260509233703 | 23 | 185 | 9.7 | 24.1 | 0.00 | 0.00 | 0.00 | 52 | 1009.8 |
| 20260509233203 | 23 | 206 | 11.3 | 22.5 | 0.00 | 0.00 | 0.00 | 52 | 1009.8 |
| 20260509231703 | 23 | 207 | 6.4 | 16.1 | 0.00 | 0.00 | 0.00 | 53 | 1009.9 |
| 20260509231203 | 23 | 217 | 8.0 | 19.3 | 0.00 | 0.00 | 0.00 | 52 | 1009.8 |
| 20260509230202 | 23 | 215 | 8.0 | 22.5 | 0.00 | 0.00 | 0.00 | 51 | 1009.8 |
| 20260509224703 | 23 | 233 | 11.3 | 19.3 | 0.00 | 0.00 | 0.00 | 50 | 1009.8 |
| 20260509224202 | 24 | 208 | 6.4 | 16.1 | 0.00 | 0.00 | 0.00 | 50 | 1009.8 |
| 20260509223702 | 25 | 213 | 9.7 | 16.1 | 0.00 | 0.00 | 0.00 | 48 | 1009.7 |
| 20260509223203 | 25 | 218 | 9.7 | 16.1 | 0.00 | 0.00 | 0.00 | 47 | 1009.6 |
| 20260509221702 | 26 | 201 | 11.3 | 22.5 | 0.00 | 0.00 | 0.00 | 45 | 1009.6 |
| 20260509221203 | 26 | 193 | 11.3 | 22.5 | 0.00 | 0.00 | 0.00 | 46 | 1009.6 |
| 20260509220202 | 26 | 196 | 12.9 | 20.9 | 0.00 | 0.00 | 0.00 | 46 | 1009.7 |
| 20260509214702 | 26 | 273 | 8.0 | 20.9 | 0.00 | 0.00 | 0.00 | 44 | 1009.9 |
| 20260509214203 | 26 | 193 | 11.3 | 20.9 | 0.00 | 0.00 | 0.00 | 45 | 1009.9 |
| 20260509213702 | 26 | 206 | 9.7 | 20.9 | 0.00 | 0.00 | 0.00 | 46 | 1010.0 |
| 20260509213202 | 26 | 207 | 14.5 | 22.5 | 0.00 | 0.00 | 0.00 | 46 | 1010.0 |
| 20260509211703 | 25 | 195 | 12.9 | 25.7 | 0.00 | 0.00 | 0.00 | 48 | 1010.0 |
| 20260509211202 | 25 | 189 | 14.5 | 25.7 | 0.00 | 0.00 | 0.00 | 49 | 1010.0 |
| 20260509210202 | 25 | 227 | 6.4 | 19.3 | 0.00 | 0.00 | 0.00 | 50 | 1009.9 |
| 20260509204702 | 25 | 263 | 8.0 | 24.1 | 0.00 | 0.00 | 0.00 | 49 | 1010.0 |
| 20260509204202 | 24 | 207 | 8.0 | 16.1 | 0.00 | 0.00 | 0.00 | 51 | 1009.9 |
| 20260509203702 | 24 | 212 | 11.3 | 16.1 | 0.00 | 0.00 | 0.00 | 50 | 1010.0 |
| 20260509203202 | 24 | 204 | 11.3 | 19.3 | 0.00 | 0.00 | 0.00 | 50 | 1010.0 |
| 20260509201702 | 25 | 228 | 11.3 | 20.9 | 0.00 | 0.00 | 0.00 | 49 | 1009.9 |
| 20260509200702 | 25 | 227 | 8.0 | 24.1 | 0.00 | 0.00 | 0.00 | 48 | 1009.9 |
| 20260509200202 | 26 | 182 | 16.1 | 24.1 | 0.00 | 0.00 | 0.00 | 46 | 1009.9 |
| 20260509194702 | 26 | 224 | 8.0 | 19.3 | 0.00 | 0.00 | 0.00 | 47 | 1009.8 |
| 20260509194203 | 26 | 227 | 9.7 | 20.9 | 0.00 | 0.00 | 0.00 | 47 | 1009.9 |
| 20260509193703 | 25 | 200 | 9.7 | 24.1 | 0.00 | 0.00 | 0.00 | 48 | 1009.9 |
| 20260509193203 | 25 | 181 | 6.4 | 24.1 | 0.00 | 0.00 | 0.00 | 47 | 1009.9 |
| 20260509191703 | 25 | 278 | 14.5 | 22.5 | 0.00 | 0.00 | 0.00 | 48 | 1010.0 |
| 20260509191202 | 25 | 199 | 11.3 | 22.5 | 0.00 | 0.00 | 0.00 | 49 | 1010.1 |